{"data":{"norad_id":62303,"intl_designator":"2024-239C","name":"STARLINK-32621","alt_names":[],"object_type":"PAYLOAD","status":"ACTIVE","operator":null,"country":"US","launch_date":"2024-12-13","launch_site_code":"AFWTR","launch_vehicle":null,"mission":null,"orbit_class":"UNKNOWN","rcs_meters":null,"size_class":null,"mass_kg":null,"dimensions":null,"purposes":["comms"],"wikipedia_slug":null,"has_3d_model":false,"image_url":null,"decayed_at":null,"tle_current":{"epoch":"2026-05-25T02:07:53.583168Z","epoch_age_seconds":70671,"freshness":"FRESH","line1":"1 62303U 24239C   26145.08881462  .00010497  00000+0  36590-3 0  9995","line2":"2 62303  53.1580 186.0825 0001366  84.2398 275.8758 15.30212041 81266","mean_motion":15.30212041,"eccentricity":0.0001366,"inclination_deg":53.158,"raan_deg":186.0825,"arg_perigee_deg":84.2398,"mean_anomaly_deg":275.8758,"bstar":0.0003659,"rev_number":8126,"period_min":94.104605206149,"perigee_km":474.24295441784,"apogee_km":476.11528038112,"semimajor_km":6853.3161173995,"source":"CELESTRAK","updated_at":"2026-05-25T13:38:19.647405Z"}}}